Location: Blackwater Beach
(38.5801°N, 75.1577°W)
Time: 10:03:32
(UTC+00:00)

Cosmos 1725 Rocket - Pass Details

Date: 13 February 2026
Orbit: 962 x 989 km, 82.9° (Epoch: 11 March)

Event Time Altitude Azimuth Distance (km) Brightness Sun altitude
Rises 22:54:10 0° 351° (N) 3,676 7.0 -4.2°
Reaches altitude 10° 22:56:40 10° 350° (N) 2,729 6.3 -4.7°
Maximum altitude 23:02:55 79° 265° (W) 1,001 4.3 -5.8°
Drops below altitude 10° 23:09:11 10° 180° (S) 2,730 6.5 -7.0°
Sets 23:11:41 0° 179° (S) 3,677 7.2 -7.5°
